(980) Anacostia
ephemeris date magn radius delta ra dec elong phase
Today26 Jul 202612.92.302 AU2.649 AU03h58m+33°13'59.3°22.3°
Opposition11 Dec 202611.32.564 AU1.592 AU05h08m+34°42'168.2°4.5°
(980) Anacostia - 2026-07-26
astro.vanbuitenen.nl


 
-1 year
-1 month
-1 day
Now
+1 day
+1 month
+1 year

The interactive orbit chart above shows the body's path through the solar system and its position at the given date. Green and blue lines are shown perpendicular to the ecliptic plane: Green if the path is above the ecliptic plane, blue if it is below. (Left-click and drag to rotate the view; Right-click and drag to move the view; Use scroll wheel to zoom in our out.)

The orbital elements of Anacostia are:

            e (Eccentricity)                : 0.2014131
            a (Semimajor axis)              : 2.7407716
            i (Inclination)                 : 15.89613
            Ω (Longitude of ascending node) : 285.76026
            ω (Argument of perihelion)      : 69.75844
            M (Mean anomaly)                : 20.13681
            Epoch                           : 2026 Jun 09

            L (Longitude of perihelion)     : 354.78274
            B (Latitude of perihelion)      : 14.89089
            P (Orbital period in years)     : 4.54            
        

The light curve chart below shows the estimated development of the minor planet's magnitude.


The all-sky chart below shows the path of the minor planet over the same period as the light curve. The current position is marked yellow.





The following chart shows the path of the minor planet in the next few days. The field of view is optimized for (~10x50) binoculars and finderscopes.




Ephemerides:
Date       Time       RA (2000)    DEC (2000)    delta   radius  elong  phase   PA    magn
2026-07-26 00:00 UT   03 58 05.3   +33 13 58     2.649    2.302   59.3   22.3   266   12.9 
2026-07-26 12:23 UT   03 59 04.7   +33 17 06     2.645    2.303   59.5   22.3   266   12.9 
2026-07-27 00:00 UT   04 00 00.4   +33 20 01     2.641    2.303   59.8   22.4   266   12.9 
2026-07-28 00:00 UT   04 01 55.1   +33 25 60     2.632    2.305   60.3   22.5   266   12.9 
2026-07-29 00:00 UT   04 03 49.4   +33 31 52     2.624    2.306   60.8   22.6   266   12.9 
2026-07-30 00:00 UT   04 05 43.2   +33 37 39     2.616    2.308   61.4   22.7   266   12.9 
2026-07-31 00:00 UT   04 07 36.6   +33 43 20     2.607    2.310   61.9   22.8   266   12.9 
2026-08-01 00:00 UT   04 09 29.5   +33 48 55     2.599    2.311   62.4   22.9   266   12.9 
2026-08-02 00:00 UT   04 11 21.9   +33 54 25     2.590    2.313   62.9   23.0   266   12.9 
2026-08-03 00:00 UT   04 13 13.8   +33 59 49     2.582    2.314   63.5   23.1   266   12.9 
2026-08-04 00:00 UT   04 15 05.2   +34 05 08     2.573    2.316   64.0   23.2   266   12.9 
2026-08-05 00:00 UT   04 16 56.0   +34 10 22     2.564    2.317   64.6   23.3   266   12.9 
2026-08-06 00:00 UT   04 18 46.3   +34 15 30     2.556    2.319   65.1   23.4   266   12.9 
2026-08-07 00:00 UT   04 20 36.0   +34 20 33     2.547    2.321   65.6   23.5   266   12.9 
2026-08-08 00:00 UT   04 22 25.2   +34 25 30     2.538    2.322   66.2   23.5   266   12.9 
2026-08-09 00:00 UT   04 24 13.7   +34 30 22     2.529    2.324   66.8   23.6   266   12.8 
2026-08-10 00:00 UT   04 26 01.6   +34 35 09     2.520    2.325   67.3   23.7   266   12.8 
2026-08-11 00:00 UT   04 27 48.9   +34 39 50     2.511    2.327   67.9   23.8   266   12.8 
2026-08-12 00:00 UT   04 29 35.4   +34 44 27     2.502    2.329   68.4   23.9   266   12.8 
2026-08-13 00:00 UT   04 31 21.4   +34 48 58     2.493    2.330   69.0   23.9   266   12.8 
2026-08-14 00:00 UT   04 33 06.6   +34 53 24     2.484    2.332   69.6   24.0   266   12.8 
2026-08-15 00:00 UT   04 34 51.1   +34 57 45     2.474    2.334   70.1   24.1   266   12.8 
2026-08-16 00:00 UT   04 36 34.8   +35 02 01     2.465    2.335   70.7   24.2   266   12.8 


    Terminology:
            
    delta:  distance between minor planet and earth in AU
    radius: distance between minor planet and sun in AU
    magn:   magnitude (brightness) estimate    
    ra:     right ascension in hours (24h = 360deg)
    dec:    declination in degrees
    elong:  elongation in degrees (angle sun-earth-minor planet)    
    phase:  phase angle in degrees (angle sun-minor planet-earth)        
    AU:     Astronomical Unit (mean distance between earth and sun: 149597870.7 km
    

Orbital elements provided by the MPC (Minor Planet Center).
Calculations by a modified version of AAPlus, a C# implementation of the AA+ project by PJ Naughter from the algorithms presented in the book "Astronomical Algorithms" by Jean Meeus.
NGC2000 dso catalog and star labels from VizieR as provided by the Strasbourg astronomical Data Center.
Tycho2 catalog from the ESO archive.